Wetbulb
56.42 56.19 56.31 56.28 56.48 56.68 56.61 56.82 57.03 57.22 57.36 57.51 57.52 57.54 57.72 57.27 57.46 54.69 48.89 53.48 55.81 64.21 70.24 62.64 68.41 65.56 68.09 66.24 68.20 68.91 57.88 54.57 56.79 57.12 58.50 63.49 62.85 66.37 67.86 64.63 66.43 66.15 63.49 65.56 67.16
56.15 56.06 56.13 56.18 56.35 56.49 56.55 56.54 56.71 57.03 57.04 57.29 57.09 57.50 57.37 57.05 52.93 50.46 56.09 62.76 63.68 68.54 67.97 65.30 62.96 62.93 62.65 63.97 64.99 62.58 57.33 58.46 62.27 60.88 59.47 63.16 64.08 65.12 64.09 64.03 63.21 62.89 65.17 66.92 66.64
55.96 56.05 56.07 56.07 56.22 56.31 56.41 56.52 56.58 56.79 56.89 56.90 57.03 57.53 57.72 56.01 49.01 50.62 64.36 63.13 66.70 67.45 67.91 65.32 61.73 58.39 55.73 59.67 62.90 62.76 58.55 61.81 62.78 61.97 63.31 62.82 63.07 66.30 63.90 61.34 62.65 60.79 63.28 65.41 65.13
55.59 55.74 55.67 55.81 56.20 56.26 56.20 56.40 56.42 56.35 56.37 56.67 56.65 57.65 56.70 52.43 42.01 55.79 71.87 65.43 67.91 62.51 59.21 57.10 55.81 51.49 50.04 52.35 57.78 58.03 62.32 63.98 63.71 63.83 62.92 61.73 63.00 64.51 65.04 64.62 66.01 64.34 65.30 65.06 64.42
55.59 55.71 56.10 56.11 55.94 56.31 56.60 56.41 56.45 56.10 56.20 56.32 56.40 57.44 53.34 46.23 46.54 55.42 70.94 66.17 64.31 56.88 55.17 52.23 49.54 48.94 48.40 50.38 54.79 56.32 59.40 61.46 63.31 62.90 62.95 63.40 63.00 64.20 65.08 66.36 66.16 65.08 65.48 64.68 65.46
56.03 56.21 56.13 56.13 56.22 56.37 56.34 56.07 56.13 56.07 56.84 57.28 56.35 57.98 50.02 40.34 52.64 56.58 63.27 62.24 60.75 56.34 53.42 52.00 49.40 49.73 48.08 49.16 53.14 55.78 56.67 57.92 59.92 60.16 62.14 61.75 62.92 64.39 65.34 65.34 64.54 63.93 63.88 64.88 66.27
55.76 55.94 55.90 55.97 56.10 56.19 55.94 55.44 55.80 56.60 58.63 58.28 57.19 55.68 49.96 46.79 55.87 55.83 55.46 58.69 60.16 56.20 51.84 53.50 51.99 50.36 49.05 48.77 53.70 53.74 51.84 54.24 56.95 59.21 61.36 62.61 60.00 62.11 65.14 63.99 62.56 62.89 63.11 65.02 66.49
55.73 55.72 55.58 55.46 55.60 55.43 55.07 54.53 55.60 57.47 57.02 57.26 58.74 55.28 47.28 56.44 56.28 56.97 54.42 53.56 60.18 58.08 52.19 54.84 52.76 48.87 47.50 49.75 49.63 49.31 49.15 45.24 52.93 58.01 61.93 60.87 53.68 63.20 64.84 62.63 61.22 62.27 63.12 64.43 65.90
55.16 55.09 55.01 54.93 54.79 54.28 53.66 54.60 56.57 58.11 59.31 59.40 53.64 50.11 46.39 59.01 54.38 53.64 55.16 54.67 57.70 55.68 53.66 57.13 51.04 45.66 46.60 44.30 41.31 41.86 41.01 46.35 50.37 58.13 60.33 58.76 56.76 63.41 64.91 63.42 61.26 61.53 62.47 64.25 65.54
54.77 54.43 54.37 54.12 53.75 53.30 53.12 54.84 56.08 58.53 58.19 58.08 56.94 46.14 47.48 45.58 48.13 50.06 51.99 56.65 54.13 53.18 51.72 48.50 45.81 41.47 39.76 39.75 38.89 38.65 41.41 44.55 47.55 56.04 58.85 56.94 56.75 62.94 64.03 63.77 62.65 62.37 62.89 64.17 65.47
54.49 54.06 53.67 53.26 52.81 52.46 50.41 43.03 41.37 39.46 41.21 37.94 40.65 45.46 45.26 47.23 48.94 48.89 49.74 53.24 52.56 48.17 42.77 45.47 39.93 39.58 42.51 44.34 44.36 44.83 45.45 46.71 50.24 56.64 57.09 56.42 57.06 61.48 63.20 63.34 62.82 63.05 63.59 63.73 65.08
54.00 53.61 53.26 52.61 52.21 52.26 46.88 42.37 43.40 44.23 35.90 43.48 43.89 43.49 45.34 43.66 42.88 47.34 48.51 49.84 49.37 44.31 46.00 42.35 40.11 44.56 45.28 45.32 44.36 44.03 42.32 43.85 49.23 54.24 56.77 56.21 55.90 61.21 63.04 62.86 63.50 63.26 63.73 64.46 64.84
53.71 53.26 52.56 52.04 51.75 47.48 43.64 43.26 46.68 41.39 33.76 39.37 42.49 42.94 43.65 42.75 42.12 45.53 47.19 46.47 46.75 45.26 45.77 42.85 44.97 47.92 46.24 44.10 43.80 43.26 42.62 43.52 46.11 51.40 55.37 54.16 53.89 57.63 61.76 63.91 64.37 64.82 65.25 65.58 65.02
53.52 53.01 52.04 51.23 45.55 44.17 44.23 45.29 46.22 43.59 29.85 37.33 40.20 43.41 43.80 44.03 40.97 48.80 48.51 45.07 45.15 45.33 46.64 45.10 49.81 48.05 45.65 44.41 45.50 39.90 47.48 47.63 47.60 46.34 43.63 55.16 45.30 53.80 57.88 59.98 60.59 63.46 64.58 65.37 65.71
53.27 52.58 51.37 50.94 42.42 42.40 46.29 46.36 45.12 40.66 23.51 41.79 40.05 45.77 42.73 39.72 41.79 44.02 48.69 45.91 41.37 42.40 42.39 44.14 46.51 46.35 45.03 45.91 48.25 45.03 49.20 47.87 47.64 44.00 43.39 48.93 47.96 50.31 56.65 56.17 58.55 60.34 63.63 64.81 66.22
52.68 51.96 51.34 46.73 43.64 45.35 46.84 44.38 40.73 31.04 25.11 37.28 40.05 38.70 38.93 39.78 40.89 44.09 43.50 46.69 47.15 43.96 44.43 43.67 48.82 48.98 48.64 50.53 50.71 51.33 47.54 45.85 44.38 42.04 38.17 44.60 46.00 42.49 52.51 55.53 58.04 60.81 61.98 63.76 65.24
51.61 50.55 49.54 49.59 41.60 46.73 45.27 39.55 29.94 24.95 37.60 34.66 33.85 36.93 36.21 35.26 38.16 40.26 39.48 39.19 36.96 34.90 35.17 41.51 44.78 48.02 50.42 47.49 50.45 49.75 42.30 34.89 33.96 34.62 37.69 43.41 43.11 46.87 55.36 58.65 59.34 60.06 61.54 62.76 64.97
50.54 49.53 47.64 49.98 48.59 46.98 40.69 34.93 24.19 34.70 32.09 36.39 35.88 35.97 34.04 36.31 34.81 37.40 35.65 34.48 40.04 38.04 34.69 32.01 36.08 45.01 48.39 47.60 46.20 46.35 42.85 35.30 29.93 31.60 36.26 43.16 38.44 44.10 54.59 60.41 61.46 62.18 63.00 63.47 64.31
49.99 43.55 43.86 46.72 49.26 44.04 36.98 26.35 26.96 32.46 36.03 35.00 33.69 31.67 30.42 35.37 35.70 34.79 34.05 35.54 39.34 39.00 32.89 32.90 34.19 43.21 45.77 49.46 50.33 46.65 43.68 46.24 37.04 32.79 35.76 41.45 41.17 47.23 51.88 56.55 59.49 60.58 61.70 62.12 63.49
44.83 39.41 41.20 48.73 46.12 40.04 33.33 30.09 31.59 38.21 37.95 35.87 29.22 32.63 27.46 30.52 31.51 30.17 32.43 38.15 38.83 40.78 40.03 36.75 31.18 39.51 43.57 48.01 49.04 49.43 47.98 40.40 37.29 31.73 29.94 34.78 37.58 42.83 46.70 51.42 56.05 58.45 60.34 61.65 63.19
39.09 36.80 44.49 48.60 42.84 36.02 28.83 29.12 36.13 40.44 40.35 34.69 31.97 29.77 29.24 29.76 29.83 29.69 32.47 38.06 40.59 39.64 40.33 37.41 35.75 36.00 41.36 41.86 43.65 44.44 45.01 42.55 43.23 38.01 37.44 30.73 37.59 44.14 47.09 50.50 54.41 57.87 60.43 61.80 62.63
36.87 31.72 44.01 44.61 35.30 32.30 30.85 34.78 39.88 38.77 40.27 37.05 35.65 32.86 30.65 31.88 29.48 30.73 32.18 36.44 42.14 40.54 35.12 39.85 36.99 33.71 35.77 44.57 45.25 43.05 44.81 41.60 42.65 36.39 34.19 36.03 41.69 47.70 47.92 49.17 51.57 57.58 60.39 62.35 63.34
38.08 34.82 43.47 41.76 29.48 29.76 33.91 36.32 38.70 38.24 38.79 36.71 35.38 35.27 33.38 30.17 27.58 32.53 35.94 41.73 41.91 40.19 37.00 39.18 36.21 28.87 34.18 37.40 41.77 40.21 46.54 47.67 43.90 38.08 36.13 39.76 41.25 47.28 46.80 48.48 48.79 49.92 53.86 61.12 63.08
39.81 32.01 36.04 36.82 35.11 34.12 32.79 33.93 35.44 41.39 39.85 39.25 37.27 37.56 32.78 28.96 31.42 31.18 34.56 39.88 41.29 39.92 43.25 41.63 35.84 31.10 28.57 32.27 35.91 34.33 37.53 40.95 43.26 41.95 37.91 41.22 40.97 45.66 47.46 47.66 48.51 50.16 51.88 56.21 62.65
35.79 31.69 34.51 30.98 31.75 34.90 36.69 34.40 33.63 34.39 40.28 40.12 36.58 35.90 33.15 28.37 28.78 29.54 33.31 34.94 39.40 41.51 40.63 38.02 32.13 32.94 33.17 34.91 35.77 35.56 36.41 38.46 38.15 42.06 41.89 43.54 40.70 44.88 46.27 47.55 49.10 53.07 52.87 53.65 60.67
35.21 34.84 35.99 37.11 38.55 36.68 35.95 34.18 34.43 37.41 36.59 35.61 35.22 37.03 36.66 30.48 30.16 27.97 30.73 31.22 33.45 36.27 36.80 37.90 31.92 33.97 30.34 34.90 35.60 34.48 39.00 41.17 42.45 44.30 42.33 41.70 42.80 46.14 46.64 51.32 53.93 52.79 52.45 55.38 61.30
42.37 44.62 40.95 38.94 37.50 35.62 35.71 36.33 36.24 37.47 37.80 39.80 39.03 36.48 35.06 36.33 38.05 37.24 36.02 35.51 36.22 34.74 34.62 34.77 34.07 29.68 25.23 36.68 40.02 38.14 41.29 42.60 45.46 44.80 44.49 40.90 44.24 48.23 53.41 56.33 56.61 56.64 54.67 57.12 62.48
MSLP
1018.64 1018.12 1017.59 1017.08 1016.54 1015.98 1015.43 1014.93 1014.41 1013.87 1013.60 1013.31 1012.94 1012.55 1012.13 1011.93 1011.65 1011.37 1010.24 1007.62 1007.47 1007.15 1007.40 1008.12 1008.79 1009.01 1009.28 1009.54 1009.37 1009.19 1009.67 1009.17 1007.90 1007.19 1007.19 1006.84 1007.00 1007.40 1008.15 1008.75 1009.11 1009.81 1010.39 1011.68 1012.83
1018.61 1018.03 1017.38 1016.75 1016.22 1015.70 1015.18 1014.55 1014.02 1013.60 1013.10 1012.78 1012.63 1012.37 1012.03 1011.77 1011.42 1009.91 1005.90 1005.99 1006.56 1006.80 1007.21 1007.85 1008.57 1008.96 1009.45 1009.34 1009.34 1009.27 1009.12 1007.70 1006.68 1006.54 1006.49 1006.49 1006.75 1007.19 1008.08 1008.67 1009.53 1010.07 1010.80 1012.02 1012.91
1018.52 1017.91 1017.25 1016.59 1015.83 1015.25 1014.74 1014.21 1013.64 1013.08 1012.75 1012.41 1012.20 1012.01 1011.77 1011.77 1011.05 1006.12 1003.51 1004.86 1005.68 1006.19 1006.68 1007.35 1008.12 1008.71 1009.21 1009.11 1008.96 1008.66 1007.85 1006.91 1006.32 1006.16 1006.15 1006.15 1006.57 1006.82 1007.87 1008.65 1009.17 1009.55 1010.62 1011.84 1012.88
1018.33 1017.69 1017.01 1016.26 1015.54 1014.88 1014.14 1013.41 1012.95 1012.62 1012.21 1011.92 1011.81 1011.58 1011.61 1011.64 1008.73 1004.16 1003.49 1004.29 1005.45 1006.20 1006.62 1007.29 1008.11 1008.69 1008.87 1008.78 1008.35 1008.19 1006.87 1006.40 1005.88 1005.85 1006.09 1006.31 1006.36 1006.65 1007.18 1007.45 1008.03 1009.21 1009.59 1010.93 1012.19
1018.24 1017.47 1016.69 1015.91 1015.17 1014.35 1013.55 1012.79 1012.28 1011.75 1011.51 1011.48 1011.41 1011.26 1011.56 1010.76 1007.11 1004.25 1004.13 1004.72 1005.68 1005.96 1006.20 1006.58 1007.42 1008.08 1008.23 1008.02 1007.97 1007.63 1006.49 1006.08 1005.63 1005.84 1005.80 1005.81 1006.07 1006.46 1007.00 1007.39 1008.41 1009.80 1010.77 1011.53 1011.99
1018.07 1017.26 1016.41 1015.43 1014.72 1013.73 1012.94 1012.12 1011.70 1011.27 1010.75 1010.72 1011.10 1011.28 1011.35 1009.46 1005.03 1004.87 1004.49 1005.23 1005.51 1005.81 1006.02 1006.33 1006.56 1006.97 1007.50 1007.45 1007.41 1006.37 1006.35 1005.53 1005.71 1005.47 1005.41 1005.45 1005.99 1006.32 1007.37 1008.01 1009.02 1009.79 1010.76 1011.53 1011.71
1018.16 1017.37 1016.46 1015.43 1014.45 1013.45 1012.46 1011.43 1010.99 1010.82 1010.08 1009.99 1010.69 1010.97 1010.89 1007.00 1005.12 1005.23 1005.50 1005.74 1005.44 1005.30 1005.80 1005.84 1006.02 1006.51 1006.82 1007.03 1006.54 1006.43 1006.36 1005.63 1005.13 1004.98 1005.03 1005.03 1005.95 1006.59 1007.13 1008.05 1008.89 1009.73 1010.53 1011.19 1011.57
1018.09 1017.19 1016.22 1015.28 1014.21 1013.29 1012.07 1010.87 1010.57 1010.29 1010.15 1010.26 1010.45 1010.53 1009.44 1006.47 1005.80 1005.29 1005.21 1005.20 1005.64 1005.85 1005.92 1005.65 1006.22 1006.52 1006.69 1006.53 1006.23 1006.25 1006.64 1006.17 1004.49 1004.55 1004.40 1004.59 1005.88 1006.94 1007.35 1007.90 1009.09 1009.87 1010.21 1010.51 1010.82
1017.90 1017.15 1016.07 1015.07 1013.90 1013.07 1011.63 1010.41 1009.93 1009.95 1010.09 1010.15 1010.40 1010.40 1008.00 1006.08 1005.77 1004.76 1004.71 1004.66 1004.97 1005.78 1006.07 1006.10 1006.69 1006.71 1006.77 1006.97 1007.15 1006.61 1006.41 1005.87 1004.75 1004.28 1004.56 1005.08 1006.00 1006.75 1007.62 1008.37 1009.23 1009.68 1010.01 1010.34 1010.60
1017.55 1016.61 1015.87 1014.49 1013.52 1012.58 1011.06 1009.71 1009.63 1009.96 1010.07 1010.13 1010.11 1010.32 1007.70 1006.39 1005.40 1004.75 1004.00 1004.05 1004.64 1005.69 1006.59 1006.57 1006.77 1006.78 1006.94 1007.10 1006.39 1006.56 1006.18 1005.43 1004.79 1004.29 1004.74 1005.40 1005.63 1006.53 1007.22 1007.81 1008.61 1009.17 1009.56 1009.83 1010.15
1017.51 1016.53 1015.67 1014.20 1013.42 1012.50 1011.41 1009.93 1010.61 1010.42 1009.94 1010.05 1009.57 1009.41 1007.58 1005.95 1005.01 1004.87 1003.98 1004.05 1004.18 1005.22 1006.09 1006.14 1006.62 1005.76 1004.43 1005.60 1006.17 1006.00 1005.75 1005.22 1004.25 1004.07 1004.57 1005.11 1005.56 1006.09 1006.88 1007.93 1008.11 1008.61 1008.95 1009.23 1009.24
1017.45 1016.54 1015.54 1014.12 1013.15 1012.36 1011.95 1011.90 1012.49 1012.71 1011.01 1009.33 1008.65 1008.47 1007.11 1006.51 1005.82 1004.99 1004.25 1004.37 1004.35 1004.77 1005.55 1006.07 1004.89 1004.63 1005.61 1005.94 1006.07 1005.93 1005.60 1004.99 1004.26 1003.92 1004.29 1004.77 1005.27 1005.84 1006.66 1006.55 1006.66 1007.71 1008.45 1008.50 1008.89
1017.32 1016.43 1015.41 1014.05 1013.03 1012.47 1012.69 1012.09 1012.23 1012.37 1012.27 1009.46 1008.32 1007.67 1006.85 1006.61 1006.23 1005.66 1005.36 1004.64 1004.45 1004.65 1004.56 1004.52 1003.69 1004.62 1004.90 1005.09 1005.39 1005.31 1005.11 1004.79 1004.34 1004.01 1003.90 1004.44 1005.49 1006.09 1006.55 1006.87 1006.91 1007.34 1007.43 1007.97 1008.01
1016.80 1015.89 1015.39 1014.31 1013.29 1013.52 1012.60 1011.78 1011.78 1011.81 1011.93 1009.57 1007.94 1007.40 1007.01 1006.29 1006.34 1006.14 1005.81 1005.62 1004.81 1004.45 1004.68 1004.14 1003.35 1003.50 1003.78 1003.87 1004.23 1004.49 1003.90 1004.39 1004.39 1004.84 1004.69 1004.29 1005.62 1005.87 1005.99 1005.92 1005.87 1005.91 1006.38 1006.93 1007.40
1016.87 1015.93 1015.36 1014.85 1014.39 1013.69 1012.35 1011.50 1011.12 1011.52 1011.12 1008.97 1008.43 1007.71 1007.85 1008.28 1007.84 1006.69 1006.23 1005.73 1005.76 1005.43 1004.83 1002.85 1002.53 1002.55 1002.73 1002.04 1003.09 1002.59 1003.52 1004.12 1004.29 1004.57 1005.07 1004.67 1005.11 1004.51 1005.00 1005.17 1004.91 1004.51 1004.71 1005.51 1006.23
1016.71 1015.66 1015.09 1014.63 1014.47 1013.31 1012.08 1011.34 1011.33 1012.14 1010.67 1009.41 1009.19 1008.91 1008.89 1008.94 1008.55 1008.01 1007.44 1006.87 1006.63 1006.15 1004.63 1004.19 1002.68 1001.75 1001.12 1001.90 1002.41 1002.69 1003.41 1004.20 1004.61 1005.18 1004.61 1004.39 1004.57 1003.90 1003.66 1003.26 1003.20 1003.23 1003.68 1004.20 1004.98
1016.44 1015.21 1014.57 1014.49 1013.95 1012.75 1011.90 1011.87 1012.59 1012.05 1010.88 1010.73 1010.42 1010.03 1010.00 1010.20 1009.65 1009.50 1009.24 1009.63 1009.69 1008.58 1007.47 1005.75 1003.13 1002.41 1001.54 1001.67 1002.11 1002.63 1003.49 1004.93 1005.52 1005.20 1003.64 1003.22 1003.62 1002.47 1001.53 1001.26 1001.23 1001.03 1001.59 1002.38 1003.44
1016.25 1014.93 1014.30 1013.67 1012.78 1012.57 1012.59 1012.98 1013.13 1012.40 1011.67 1011.26 1011.27 1011.10 1011.27 1011.38 1011.22 1011.13 1011.09 1011.34 1011.86 1011.27 1010.25 1008.93 1005.30 1003.01 1001.68 1001.19 1001.29 1001.78 1002.71 1003.74 1004.23 1004.19 1003.56 1002.76 1001.37 1000.12 999.74 999.59 999.34 999.35 1000.08 1002.26 1003.38
1016.15 1015.09 1014.33 1013.25 1012.57 1012.59 1013.49 1014.12 1013.68 1012.98 1012.29 1011.97 1012.00 1012.12 1012.34 1012.12 1012.02 1012.18 1012.16 1012.22 1012.70 1012.64 1012.36 1011.21 1008.31 1005.08 1003.55 1001.41 1000.87 1000.77 1001.13 1002.42 1003.33 1004.10 1003.51 1001.73 1000.76 999.47 998.72 998.56 998.66 998.88 1000.10 1000.64 1001.40
1017.29 1016.55 1014.81 1012.86 1012.47 1012.92 1014.19 1014.65 1013.94 1013.15 1012.56 1012.41 1012.65 1012.84 1012.98 1012.91 1012.81 1012.81 1012.63 1012.43 1012.77 1013.18 1013.43 1013.14 1011.21 1007.26 1004.65 1002.43 1000.45 999.80 1000.82 1002.09 1002.35 1003.10 1002.73 1001.23 1000.11 998.88 998.38 997.99 997.95 998.08 998.67 999.27 999.84
1017.83 1016.69 1013.95 1012.94 1012.74 1014.09 1015.30 1015.28 1014.23 1013.54 1013.04 1012.79 1012.83 1013.01 1013.31 1013.48 1013.33 1013.20 1012.82 1012.56 1012.80 1013.21 1013.67 1013.89 1012.98 1008.83 1006.95 1003.00 1000.70 1000.12 1000.04 1000.37 1001.28 1001.87 1001.58 1000.84 998.84 997.42 997.15 997.00 997.08 996.95 997.16 997.54 998.42
1019.03 1017.68 1014.56 1013.37 1014.64 1016.30 1016.66 1016.16 1015.04 1013.85 1013.25 1012.88 1012.79 1013.06 1013.44 1013.75 1013.72 1013.42 1013.03 1012.81 1013.05 1013.47 1013.96 1014.19 1013.43 1011.07 1007.63 1003.37 1002.90 1002.17 1000.43 1000.44 1000.31 1000.97 1000.88 1000.07 997.67 996.46 996.13 996.00 995.93 995.99 995.97 996.22 996.77
1019.88 1018.81 1015.66 1015.11 1017.15 1017.98 1017.70 1016.80 1015.46 1014.30 1013.88 1013.51 1013.52 1013.45 1013.65 1013.98 1014.15 1013.59 1013.18 1013.03 1013.48 1013.98 1014.58 1014.79 1013.83 1012.32 1007.86 1005.05 1003.02 1002.42 1000.26 999.70 999.92 999.90 999.67 999.31 996.45 996.19 996.15 995.88 995.80 995.86 995.42 995.50 995.91
1020.59 1019.79 1018.34 1018.12 1018.77 1019.19 1018.79 1017.25 1015.89 1014.63 1014.15 1014.12 1014.00 1013.82 1014.00 1014.15 1014.18 1013.98 1013.49 1013.11 1013.47 1014.03 1014.51 1014.90 1014.31 1013.37 1010.90 1008.30 1007.76 1005.30 1002.68 1001.06 999.83 999.78 998.88 996.85 997.57 996.57 995.92 995.88 995.51 994.97 995.09 994.71 994.77
1020.79 1020.80 1020.35 1019.82 1019.68 1019.62 1019.34 1018.21 1016.74 1015.67 1014.83 1014.81 1014.49 1014.33 1014.67 1014.63 1014.40 1014.07 1013.57 1013.33 1013.75 1014.17 1014.73 1015.24 1014.13 1013.38 1011.99 1009.68 1008.30 1006.21 1004.12 1002.13 1001.31 998.71 997.90 997.32 996.78 996.05 995.76 995.51 995.18 994.81 993.79 993.37 993.13
1020.92 1020.79 1020.59 1020.11 1019.75 1019.33 1018.89 1018.02 1017.13 1016.37 1016.23 1015.34 1015.07 1014.70 1014.75 1014.67 1014.26 1013.89 1013.74 1013.45 1013.33 1014.31 1014.66 1015.23 1014.17 1013.32 1010.92 1008.41 1006.91 1005.39 1003.31 1001.92 1000.63 999.13 998.06 997.35 996.23 995.17 995.33 995.65 995.75 994.99 993.61 993.07 992.53
1020.44 1020.37 1020.45 1019.95 1019.58 1019.36 1018.77 1017.95 1017.28 1017.03 1016.17 1015.37 1015.02 1014.76 1014.05 1013.32 1013.03 1012.87 1012.77 1012.64 1013.03 1013.55 1014.27 1014.85 1013.77 1013.44 1010.03 1006.57 1005.07 1004.81 1003.37 1001.52 999.60 999.73 999.27 998.63 997.62 996.86 996.64 996.87 996.91 995.61 994.13 993.28 992.42
Wind_Speed
20 21 20 20 20 20 20 19 19 19 17 16 16 16 16 14 12 3 10 13 13 14 13 10 7 5 5 4 4 2 1 3 3 4 3 5 3 8 6 13 5 7 7 21 18
22 22 22 22 21 21 20 19 19 18 18 16 14 13 13 11 5 11 16 20 19 15 11 17 11 8 4 5 4 3 3 8 4 4 2 4 3 9 6 8 5 12 22 21 17
22 23 23 24 24 23 21 19 18 18 16 15 13 11 9 4 4 11 5 27 24 20 10 11 10 7 5 3 5 6 7 5 3 5 9 2 3 5 12 3 8 26 30 24 18
24 24 25 26 26 25 24 23 20 17 16 13 10 8 3 1 4 3 8 24 22 18 11 11 8 7 6 7 6 4 10 13 2 1 6 7 6 6 11 6 13 25 30 27 22
25 26 26 26 27 27 26 24 21 20 16 11 7 2 1 0 13 6 12 20 16 17 15 11 11 7 8 6 2 13 12 9 8 5 5 8 6 5 14 11 20 23 23 22 19
25 26 26 27 26 27 27 26 21 19 18 8 5 9 2 5 4 10 5 18 14 14 14 8 11 8 7 4 13 6 14 17 9 10 6 10 3 7 6 18 20 25 24 19 19
25 25 25 27 27 28 28 28 24 19 13 7 10 5 1 17 8 12 1 5 12 19 14 12 5 11 7 1 8 8 11 8 7 7 8 8 4 4 16 20 23 24 23 20 18
25 26 26 27 27 27 28 28 22 13 6 11 10 3 9 7 6 11 3 4 7 7 4 10 5 3 3 2 5 4 5 3 3 7 5 12 7 12 18 21 22 22 21 21 22
24 24 27 27 28 27 29 26 19 4 9 11 4 4 11 5 3 6 6 5 9 6 4 8 3 4 1 2 5 3 4 7 7 10 3 7 3 14 16 17 19 20 20 19 18
27 28 27 29 30 29 31 23 4 9 6 6 2 1 4 9 8 12 6 7 6 9 4 3 4 4 2 5 14 6 5 4 6 5 7 7 6 16 20 20 20 20 20 20 19
27 28 27 30 29 28 16 6 8 7 5 4 10 4 12 8 6 4 5 4 6 6 8 7 5 20 32 16 5 4 4 6 4 8 7 15 7 18 20 16 20 19 19 21 22
27 27 28 31 30 25 4 7 8 5 11 9 11 7 10 1 4 16 5 4 7 7 6 5 18 18 5 8 10 7 5 6 5 6 9 11 14 16 19 22 22 20 19 22 21
27 26 27 30 29 4 2 2 6 5 1 10 5 5 7 1 2 12 11 5 5 9 13 10 8 16 10 11 13 14 16 10 8 3 10 8 6 8 13 11 13 18 19 18 22
30 30 29 33 4 5 6 4 3 5 5 7 5 7 12 4 3 9 6 2 5 13 11 14 21 12 16 17 16 14 16 13 14 5 5 8 6 9 13 18 17 20 21 20 22
30 30 28 13 4 3 6 9 5 5 3 2 5 3 7 8 9 16 10 6 1 9 4 15 14 17 17 23 19 14 8 10 10 3 5 7 5 8 17 19 22 22 22 22 23
31 31 29 1 1 6 10 6 4 6 5 3 4 7 7 9 7 9 6 6 3 5 6 11 10 13 25 13 13 5 5 4 1 4 10 13 10 6 13 26 25 23 23 21 21
32 33 16 1 4 7 6 6 6 4 6 4 4 5 5 8 8 13 10 16 7 8 9 11 16 17 8 16 9 12 9 3 4 7 12 7 11 14 18 25 29 31 29 26 24
33 28 4 4 7 4 4 6 3 3 1 3 3 2 4 8 5 7 5 3 14 7 2 5 9 12 8 14 12 12 12 8 10 5 6 7 8 8 16 24 28 28 26 16 17
26 5 5 4 7 2 7 4 3 4 5 5 2 4 4 3 2 6 6 4 4 7 5 5 10 14 20 15 17 11 19 11 5 3 2 6 5 6 7 14 14 21 15 21 22
8 5 5 9 5 5 6 4 3 5 6 2 2 2 3 4 2 4 3 4 4 8 3 4 9 7 14 10 17 20 10 8 5 9 8 5 6 8 11 15 13 16 20 20 22
4 5 4 14 3 6 3 4 4 6 7 2 3 2 3 2 2 1 4 3 3 5 7 2 3 10 11 7 24 12 11 5 6 5 11 1 8 8 12 16 14 16 20 23 23
3 4 6 8 7 3 2 6 6 4 4 3 2 2 2 3 2 4 4 2 6 1 2 2 1 8 12 18 17 12 11 8 12 12 3 4 15 5 10 13 14 16 17 20 24
6 4 5 5 4 4 6 7 7 4 3 3 3 2 1 1 2 4 2 5 12 6 3 1 1 8 8 2 2 5 13 16 9 4 11 15 10 3 5 5 10 11 11 15 20
3 5 5 6 3 3 5 5 5 7 7 2 4 1 0 2 4 4 4 5 8 4 5 5 3 7 8 7 9 12 18 10 11 14 6 19 5 10 12 9 8 10 12 17 22
2 2 1 4 2 3 3 5 9 5 4 3 4 1 3 4 3 6 7 3 8 5 5 2 6 10 16 26 20 20 22 22 12 10 18 13 10 13 11 9 8 9 12 17 25
1 2 1 3 6 6 3 3 9 7 4 6 7 8 7 6 8 6 6 5 6 4 4 5 4 4 17 24 21 20 18 17 19 14 7 6 14 8 2 3 8 10 10 14 20
1 1 1 3 2 2 3 4 6 9 8 11 8 11 11 14 15 14 11 11 9 11 9 6 3 2 9 5 4 6 7 13 4 15 4 8 4 12 5 11 12 13 7 14 19
Wind_Direction
352 348 343 341 338 336 334 331 327 323 321 317 317 317 316 314 310 244 237 215 192 245 162 154 187 185 177 174 243 175 31 254 233 171 149 287 181 150 93 141 174 173 132 143 145
349 346 342 340 337 336 333 328 322 317 314 313 315 317 317 315 297 249 227 205 202 195 142 159 181 160 172 181 202 183 194 217 234 104 187 147 151 126 136 150 64 97 124 144 148
348 345 342 339 337 335 330 325 316 310 307 306 311 311 323 326 298 248 267 200 184 192 159 157 151 152 170 156 205 191 227 190 262 125 156 195 197 129 148 170 185 149 150 154 154
346 343 341 338 336 334 330 323 315 307 300 299 298 303 322 207 274 46 30 176 183 172 143 148 141 165 161 198 201 255 239 252 215 187 181 164 144 150 174 205 153 162 158 157 163
345 341 338 335 334 330 327 319 316 312 307 296 276 227 179 247 253 306 25 156 169 166 173 163 153 153 175 195 183 233 256 264 266 242 149 169 155 189 195 126 139 152 158 165 163
342 339 336 332 332 328 325 319 320 317 312 294 213 135 159 250 251 25 128 147 177 174 179 156 180 168 183 210 195 200 237 263 273 281 164 153 139 129 133 135 146 159 164 171 169
338 335 332 329 328 325 324 317 320 321 321 139 170 143 225 242 331 338 159 173 180 182 173 198 164 172 163 168 251 251 288 299 250 253 176 142 183 170 145 149 155 164 169 174 177
336 333 330 328 326 326 322 316 323 320 108 127 167 189 251 261 312 306 153 196 182 241 335 189 138 154 177 280 349 158 190 269 257 204 235 140 235 164 159 154 159 167 174 180 184
335 334 330 328 327 328 320 314 321 129 133 146 137 131 277 285 330 300 198 211 152 189 284 186 139 183 113 138 3 309 190 188 276 200 168 173 199 182 167 162 168 175 183 188 188
337 335 334 328 331 329 322 309 1 120 133 181 128 291 281 305 306 306 278 185 145 122 119 171 168 167 103 146 212 202 189 196 190 216 168 171 253 173 180 171 178 181 189 190 194
335 334 336 328 332 327 334 10 15 350 41 250 275 266 276 272 278 325 296 191 121 118 166 191 162 201 210 206 173 182 212 196 213 191 143 197 198 189 181 188 178 191 192 199 201
335 335 337 329 329 323 319 68 121 248 309 298 262 240 271 220 326 347 1 174 171 179 155 140 217 217 203 190 203 231 250 258 293 182 186 195 213 195 188 200 186 191 197 202 202
334 335 338 332 324 13 316 179 115 135 274 300 257 287 321 57 322 15 12 328 237 204 190 196 238 189 201 199 190 211 222 235 231 109 203 172 236 173 197 207 199 207 207 206 205
336 338 338 334 15 328 300 312 322 166 55 283 330 355 5 66 344 22 352 301 307 216 214 223 230 197 198 216 194 215 209 221 245 144 199 165 228 210 204 214 211 209 208 203 207
333 333 333 330 279 315 288 311 316 63 347 18 19 340 14 38 287 356 330 332 212 282 282 220 196 223 205 211 199 228 163 200 234 194 150 234 121 253 197 221 222 218 210 204 208
331 330 335 72 297 268 301 321 54 46 236 28 73 350 40 6 352 342 356 359 21 350 270 235 293 206 222 216 213 169 186 192 258 139 245 212 207 256 191 220 225 226 220 207 204
331 327 330 270 287 294 320 28 42 146 348 23 345 356 95 346 3 9 16 39 8 14 17 329 249 257 242 208 213 197 138 230 251 206 235 209 196 218 210 214 217 218 213 211 205
330 320 269 235 264 323 44 44 175 30 44 326 334 77 82 21 17 16 353 40 36 14 58 13 275 230 237 215 191 207 182 166 194 188 216 201 214 235 204 218 220 226 212 201 220
329 324 319 282 307 81 63 36 221 355 312 333 349 57 325 28 344 48 356 93 66 35 50 348 267 317 300 255 196 197 207 192 102 349 170 221 250 298 204 238 222 228 193 199 209
325 341 288 315 16 61 76 236 279 3 321 39 118 56 319 318 53 57 327 97 100 99 98 39 301 284 304 298 240 208 158 186 219 189 226 270 214 206 190 229 212 219 207 201 202
24 6 271 324 69 52 128 243 301 8 348 30 196 251 249 335 15 307 219 16 61 40 104 163 186 287 334 227 220 210 202 198 154 190 223 234 250 204 195 206 199 219 209 206 200
8 354 324 346 53 34 36 317 301 340 348 313 189 186 192 223 253 234 187 180 65 155 330 90 297 277 250 278 301 297 215 169 200 215 247 194 242 250 212 197 194 213 213 208 204
339 281 318 34 56 350 320 298 268 331 302 342 299 123 206 206 303 226 153 74 68 56 110 270 82 304 290 262 324 255 203 209 208 112 208 223 233 234 254 256 207 197 224 213 206
3 344 330 34 76 72 326 299 299 310 282 309 271 282 327 235 221 252 217 194 148 147 170 133 230 220 271 304 323 300 318 328 205 218 191 233 211 262 272 259 248 248 211 215 201
55 284 217 319 332 324 279 277 288 292 280 44 310 233 1 249 254 221 224 226 97 60 97 253 236 247 255 265 272 272 275 285 286 220 206 235 222 228 228 239 277 276 258 228 200
48 20 344 270 295 279 269 251 289 302 336 254 230 281 310 236 217 253 261 220 199 129 145 220 258 281 271 252 237 247 257 256 249 246 211 198 240 220 316 14 346 305 251 209 189
238 299 181 254 266 281 251 249 276 296 262 259 285 311 281 256 243 238 238 251 180 161 182 214 182 262 265 308 273 219 335 291 139 41 337 208 294 311 59 54 15 339 321 217 189